Klawock, AK

11:42 AM AKST on December 07, 2016 (GMT -0900)
Klawock

Weather History for PAKW - January, 2014

Change the Weather History Date:

Sunday, January 5, 2014

  Actual Average Record
Temperature  
Mean Temperature 39 °F -  
Max Temperature 42 °F 36 °F 52 °F (2003)
Min Temperature 36 °F 29 °F 21 °F (2004)
Degree Days  
Heating Degree Days 26    
Moisture  
Dew Point 35 °F    
Average Humidity 87    
Maximum Humidity 97    
Minimum Humidity 73    
Precipitation  
Precipitation 0.04 in - - ()
Sea Level Pressure  
Sea Level Pressure 30.17 in    
Wind  
Wind Speed 4 mph (East)    
Max Wind Speed 9 mph    
Max Gust Speed -    
Visibility 10 miles    
Events Rain    
Averages and records for this station are not official NWS values.
T = Trace of Precipitation, MM = Missing Value Source: NWS Daily Summary

Daily Weather History Graph

Daily Weather History Graph

Search for Another Location

Airport or City:

Trip Planner

Search our weather history database for the weather conditions in past years. The results will help you decide how hot, cold, wet, or windy it might be!

Date:

Astronomy

Jan. 05, 2014 Rise Set
Actual Time 8:19 AM AKST 3:36 PM AKST
Civil Twilight 7:33 AM AKST 4:22 PM AKST
Nautical Twilight 6:45 AM AKST 5:10 PM AKST
Astronomical Twilight 6:01 AM AKST 5:54 PM AKST
Moon 10:05 AM AKST (1/5) 10:17 PM AKST (1/5)
Length of Visible Light 8h 48m
Length of Day
7h 17m
Waxing Crescent, 26% of the Moon is Illuminated
Jan 5
Waxing Crescent
Jan 7
First Quarter
Jan 15
Full
Jan 23
Last Quarter
Jan 30
New

Hourly Weather History & Observations

Time (AKST) Temp. Windchill Dew Point Humidity Pressure Visibility Wind Dir Wind Speed Gust Speed Precip Events Conditions
12:29 AM 37.0 °F 34.5 °F 34.0 °F 89% 30.32 in 10.0 mi ENE 3.5 mph - N/A   Overcast
12:53 AM 37.0 °F - 35.1 °F 93% 30.31 in 10.0 mi Calm Calm - N/A   Overcast
1:36 AM 36.0 °F 32.1 °F 35.1 °F 97% 30.30 in 10.0 mi NE 4.6 mph - N/A   Overcast
1:53 AM 37.0 °F 34.5 °F 34.0 °F 89% 30.30 in 10.0 mi Variable 3.5 mph - N/A   Mostly Cloudy
3:53 AM 37.0 °F 33.3 °F 34.0 °F 89% 30.28 in 10.0 mi Variable 4.6 mph - N/A   Overcast
4:53 AM 37.0 °F 32.4 °F 34.0 °F 89% 30.25 in 10.0 mi NNE 5.8 mph - N/A   Overcast
5:53 AM 36.0 °F 32.1 °F 34.0 °F 93% 30.25 in 10.0 mi Variable 4.6 mph - N/A   Overcast
6:53 AM 37.0 °F - 33.1 °F 86% 30.23 in 10.0 mi Calm Calm - N/A   Scattered Clouds
7:53 AM 37.0 °F 34.5 °F 34.0 °F 89% 30.23 in 10.0 mi Variable 3.5 mph - N/A   Clear
8:53 AM 37.0 °F - 34.0 °F 89% 30.25 in 10.0 mi Calm Calm - N/A   Mostly Cloudy
9:53 AM 37.9 °F - 34.0 °F 86% 30.24 in 10.0 mi Calm Calm - N/A   Overcast
10:53 AM 41.0 °F 39.0 °F 33.1 °F 73% 30.23 in 10.0 mi Variable 3.5 mph - N/A   Overcast
11:53 AM 39.9 °F - 34.0 °F 79% 30.21 in 10.0 mi Calm Calm - N/A   Overcast
12:53 PM 39.9 °F 36.7 °F 34.0 °F 79% 30.18 in 10.0 mi WNW 4.6 mph - N/A   Overcast
1:53 PM 39.0 °F 34.8 °F 35.1 °F 86% 30.16 in 10.0 mi NE 5.8 mph - N/A   Overcast
2:53 PM 39.0 °F - 35.1 °F 86% 30.14 in 10.0 mi Calm Calm - N/A   Overcast
3:53 PM 41.0 °F 37.1 °F 35.1 °F 79% 30.12 in 10.0 mi Variable 5.8 mph - N/A   Overcast
4:53 PM 42.1 °F 39.2 °F 34.0 °F 73% 30.09 in 10.0 mi SSE 4.6 mph - 0.00 in   Overcast
5:53 PM 42.1 °F 37.7 °F 36.0 °F 79% 30.08 in 10.0 mi Variable 6.9 mph - 0.00 in Rain Light Rain
6:53 PM 41.0 °F 35.2 °F 37.0 °F 86% 30.08 in 7.0 mi SSE 9.2 mph - 0.03 in Rain Light Rain
7:53 PM 41.0 °F 35.2 °F 37.0 °F 86% 30.08 in 10.0 mi SSE 9.2 mph - 0.01 in Rain Light Rain
8:53 PM 39.9 °F 36.7 °F 37.0 °F 89% 30.08 in 10.0 mi Variable 4.6 mph - 0.00 in   Overcast
9:08 PM 39.0 °F 35.7 °F 37.0 °F 93% 30.08 in 10.0 mi NE 4.6 mph - N/A   Overcast
9:53 PM 39.9 °F 37.8 °F 37.0 °F 89% 30.08 in 10.0 mi Variable 3.5 mph - N/A   Overcast
10:00 PM 39.9 °F - 37.9 °F 93% 30.08 in 10.0 mi Calm Calm - N/A   Overcast
10:53 PM 42.1 °F 38.4 °F 39.0 °F 89% 30.08 in 10.0 mi SSE 5.8 mph - N/A   Overcast
11:48 PM 41.0 °F 37.1 °F 39.2 °F 93% 30.07 in 10.0 mi Variable 5.8 mph - 0.00 in Rain Light Rain
11:53 PM 41.0 °F 37.1 °F 39.0 °F 93% 30.08 in 10.0 mi Variable 5.8 mph - 0.00 in Rain Light Rain